PRDJN SBCG-SBSR

Flight info

Callsign PRDJN
Flight time 1h 2m
Altitude 25000
Route ENROD DCT ASEPO DCT UMPED
Aircraft SF50/L-SDGRWY/L

Departure

Time 2026-04-21 17:36
Airport Campo Grande Airport (SBCG)

Arrival

Time 2026-04-21 18:38
Airport Prof. Eribelto Manoel Reino State Airport (SBSR)
Time Latitude Longitude Altitude Speed Heading
2026-04-21 17:28 -20.45877 -54.67170 1837 ft 0 kts 132°
2026-04-21 17:29 -20.45878 -54.67169 1837 ft 0 kts 130°
2026-04-21 17:29 -20.45889 -54.67158 1837 ft 3 kts 146°
2026-04-21 17:29 -20.45933 -54.67147 1837 ft 10 kts 174°
2026-04-21 17:30 -20.46026 -54.67134 1837 ft 16 kts 175°
2026-04-21 17:30 -20.46163 -54.67115 1837 ft 22 kts 175°
2026-04-21 17:30 -20.46337 -54.67093 1837 ft 26 kts 184°
2026-04-21 17:30 -20.46509 -54.67182 1837 ft 30 kts 222°
2026-04-21 17:31 -20.46684 -54.67350 1837 ft 36 kts 222°
2026-04-21 17:31 -20.46883 -54.67541 1837 ft 40 kts 223°
2026-04-21 17:31 -20.47103 -54.67756 1837 ft 44 kts 223°
2026-04-21 17:31 -20.47339 -54.67983 1837 ft 47 kts 222°
2026-04-21 17:32 -20.47594 -54.68227 1837 ft 47 kts 223°
2026-04-21 17:32 -20.47777 -54.68328 1837 ft 21 kts 129°
2026-04-21 17:32 -20.47806 -54.68293 1837 ft 0 kts 128°
2026-04-21 17:33 -20.47807 -54.68291 1837 ft 2 kts 127°
2026-04-21 17:33 -20.47839 -54.68248 1837 ft 10 kts 123°
2026-04-21 17:33 -20.47836 -54.68201 1837 ft 5 kts 46°
2026-04-21 17:34 -20.47829 -54.68195 1837 ft 0 kts 40°
2026-04-21 17:35 -20.47826 -54.68192 1837 ft 4 kts 38°
2026-04-21 17:35 -20.47643 -54.68015 1837 ft 67 kts 42°
2026-04-21 17:35 -20.47158 -54.67557 1866 ft 110 kts 43°
2026-04-21 17:35 -20.46571 -54.66956 2188 ft 119 kts 40°
2026-04-21 17:36 -20.45941 -54.66359 2588 ft 125 kts 42°
2026-04-21 17:36 -20.45240 -54.65739 2976 ft 138 kts 40°
2026-04-21 17:36 -20.44428 -54.65023 3270 ft 160 kts 39°
2026-04-21 17:36 -20.43550 -54.64254 3786 ft 166 kts 39°
2026-04-21 17:37 -20.42653 -54.63473 4357 ft 168 kts 39°
2026-04-21 17:37 -20.41748 -54.62691 4929 ft 169 kts 39°
2026-04-21 17:37 -20.40838 -54.61912 5484 ft 170 kts 38°
2026-04-21 17:37 -20.39910 -54.61124 6036 ft 171 kts 38°
2026-04-21 17:38 -20.38974 -54.60336 6574 ft 173 kts 38°
2026-04-21 17:38 -20.38034 -54.59551 7097 ft 175 kts 37°
2026-04-21 17:38 -20.37071 -54.58754 7611 ft 177 kts 37°
2026-04-21 17:38 -20.36098 -54.57954 8140 ft 178 kts 37°
2026-04-21 17:39 -20.35105 -54.57146 8639 ft 181 kts 37°
2026-04-21 17:39 -20.34142 -54.56299 9152 ft 182 kts 40°
2026-04-21 17:39 -20.33174 -54.55411 9651 ft 184 kts 40°
2026-04-21 17:39 -20.32216 -54.54530 10139 ft 185 kts 40°
2026-04-21 17:40 -20.31240 -54.53634 10602 ft 187 kts 40°
2026-04-21 17:40 -20.30247 -54.52703 11030 ft 191 kts 44°
2026-04-21 17:40 -20.30480 -54.51634 11194 ft 199 kts 149°
2026-04-21 17:40 -20.31630 -54.50838 11633 ft 201 kts 140°
2026-04-21 17:41 -20.32673 -54.49836 12114 ft 200 kts 137°
2026-04-21 17:41 -20.33689 -54.48844 12593 ft 198 kts 137°
2026-04-21 17:41 -20.34696 -54.47861 13022 ft 199 kts 138°
2026-04-21 17:41 -20.35666 -54.46792 13434 ft 200 kts 134°
2026-04-21 17:42 -20.36619 -54.45716 13829 ft 202 kts 133°
2026-04-21 17:42 -20.37579 -54.44605 14224 ft 204 kts 133°
2026-04-21 17:42 -20.38537 -54.43489 14605 ft 206 kts 133°
2026-04-21 17:42 -20.39493 -54.42372 14971 ft 208 kts 134°
2026-04-21 17:43 -20.40484 -54.41215 15349 ft 209 kts 134°
2026-04-21 17:43 -20.41457 -54.40077 15701 ft 212 kts 133°
2026-04-21 17:43 -20.42461 -54.38902 16065 ft 213 kts 133°
2026-04-21 17:43 -20.43460 -54.37733 16414 ft 215 kts 134°
2026-04-21 17:44 -20.44468 -54.36552 16766 ft 216 kts 134°
2026-04-21 17:44 -20.45449 -54.35327 17077 ft 217 kts 141°
2026-04-21 17:44 -20.46554 -54.34238 17421 ft 218 kts 138°
2026-04-21 17:44 -20.47634 -54.33103 17758 ft 219 kts 137°
2026-04-21 17:45 -20.48719 -54.31947 18096 ft 220 kts 136°
2026-04-21 17:45 -20.49787 -54.30796 18410 ft 221 kts 136°
2026-04-21 17:45 -20.50737 -54.29774 18691 ft 222 kts 137°
2026-04-21 17:45 -20.51822 -54.28609 19009 ft 223 kts 136°
2026-04-21 17:46 -20.52923 -54.27420 19312 ft 224 kts 136°
2026-04-21 17:46 -20.54013 -54.26244 19609 ft 225 kts 136°
2026-04-21 17:46 -20.55129 -54.25044 19906 ft 226 kts 136°
2026-04-21 17:46 -20.56239 -54.23848 20189 ft 228 kts 136°
2026-04-21 17:47 -20.57340 -54.22658 20479 ft 228 kts 136°
2026-04-21 17:47 -20.58460 -54.21451 20774 ft 228 kts 136°
2026-04-21 17:47 -20.59579 -54.20240 21064 ft 229 kts 136°
2026-04-21 17:47 -20.60700 -54.19033 21338 ft 229 kts 137°
2026-04-21 17:48 -20.61450 -54.18225 21519 ft 230 kts 136°
2026-04-21 17:48 -20.62949 -54.16608 21864 ft 231 kts 137°
2026-04-21 17:48 -20.64093 -54.15377 22120 ft 232 kts 136°
2026-04-21 17:48 -20.65222 -54.14154 22375 ft 233 kts 136°
2026-04-21 17:49 -20.66368 -54.12918 22625 ft 234 kts 136°
2026-04-21 17:49 -20.67521 -54.11675 22855 ft 236 kts 136°
2026-04-21 17:49 -20.68674 -54.10426 23094 ft 237 kts 136°
2026-04-21 17:49 -20.69832 -54.09173 23326 ft 238 kts 136°
2026-04-21 17:50 -20.70990 -54.07921 23546 ft 239 kts 136°
2026-04-21 17:50 -20.72176 -54.06639 23771 ft 240 kts 136°
2026-04-21 17:50 -20.73339 -54.05380 23991 ft 241 kts 136°
2026-04-21 17:50 -20.74536 -54.04084 24201 ft 242 kts 136°
2026-04-21 17:51 -20.75479 -54.02617 24383 ft 247 kts 106°
2026-04-21 17:51 -20.75714 -54.00800 24623 ft 247 kts 97°
2026-04-21 17:51 -20.75886 -53.98973 24816 ft 249 kts 97°
2026-04-21 17:51 -20.76049 -53.97121 24992 ft 251 kts 96°
2026-04-21 17:52 -20.76209 -53.95255 25027 ft 259 kts 96°
2026-04-21 17:52 -20.76373 -53.93297 25036 ft 267 kts 96°
2026-04-21 17:52 -20.76537 -53.91291 25033 ft 274 kts 96°
2026-04-21 17:52 -20.76705 -53.89238 25029 ft 280 kts 96°
2026-04-21 17:53 -20.76873 -53.87174 25029 ft 285 kts 96°
2026-04-21 17:53 -20.77045 -53.85044 25026 ft 289 kts 96°
2026-04-21 17:53 -20.77220 -53.82887 25025 ft 293 kts 96°
2026-04-21 17:53 -20.77395 -53.80713 25022 ft 296 kts 96°
2026-04-21 17:54 -20.77565 -53.78586 25020 ft 298 kts 96°
2026-04-21 17:54 -20.77676 -53.77205 25018 ft 299 kts 96°
2026-04-21 17:54 -20.77854 -53.74986 25017 ft 299 kts 96°
2026-04-21 17:54 -20.78030 -53.72783 25012 ft 298 kts 96°
2026-04-21 17:55 -20.78209 -53.70561 25011 ft 298 kts 96°
2026-04-21 17:55 -20.78385 -53.68365 25011 ft 297 kts 96°
2026-04-21 17:55 -20.78561 -53.66185 25009 ft 296 kts 96°
2026-04-21 17:55 -20.78734 -53.64006 25007 ft 296 kts 96°
2026-04-21 17:56 -20.78909 -53.61800 25005 ft 296 kts 96°
2026-04-21 17:56 -20.79083 -53.59615 25002 ft 295 kts 96°
2026-04-21 17:56 -20.79257 -53.57446 25001 ft 296 kts 96°
2026-04-21 17:56 -20.79429 -53.55259 24999 ft 296 kts 96°
2026-04-21 17:57 -20.79603 -53.53050 24997 ft 297 kts 96°
2026-04-21 17:57 -20.79776 -53.50882 24996 ft 297 kts 96°
2026-04-21 17:57 -20.79950 -53.48675 24994 ft 297 kts 96°
2026-04-21 17:57 -20.80122 -53.46478 24995 ft 297 kts 96°
2026-04-21 17:58 -20.80295 -53.44274 24995 ft 297 kts 96°
2026-04-21 17:58 -20.80466 -53.42080 24996 ft 297 kts 96°
2026-04-21 17:58 -20.80637 -53.39883 24998 ft 298 kts 96°
2026-04-21 17:58 -20.80811 -53.37678 24999 ft 298 kts 96°
2026-04-21 17:59 -20.80984 -53.35475 25001 ft 298 kts 96°
2026-04-21 17:59 -20.81154 -53.33287 25000 ft 298 kts 96°
2026-04-21 17:59 -20.81325 -53.31062 25000 ft 298 kts 96°
2026-04-21 17:59 -20.81499 -53.28861 25001 ft 298 kts 96°
2026-04-21 18:00 -20.81669 -53.26652 25003 ft 298 kts 96°
2026-04-21 18:00 -20.81839 -53.24481 25004 ft 297 kts 96°
2026-04-21 18:00 -20.82010 -53.22264 25004 ft 297 kts 96°
2026-04-21 18:00 -20.82178 -53.20073 25002 ft 297 kts 96°
2026-04-21 18:01 -20.82347 -53.17882 25003 ft 297 kts 96°
2026-04-21 18:01 -20.82517 -53.15664 25000 ft 297 kts 96°
2026-04-21 18:01 -20.82686 -53.13461 24997 ft 297 kts 96°
2026-04-21 18:01 -20.82854 -53.11270 24998 ft 297 kts 96°
2026-04-21 18:02 -20.83021 -53.09086 24998 ft 297 kts 96°
2026-04-21 18:02 -20.83191 -53.06869 24997 ft 297 kts 96°
2026-04-21 18:02 -20.83359 -53.04663 24996 ft 298 kts 96°
2026-04-21 18:02 -20.83525 -53.02467 24992 ft 298 kts 96°
2026-04-21 18:03 -20.83693 -53.00278 24996 ft 298 kts 96°
2026-04-21 18:03 -20.83860 -52.98066 24998 ft 298 kts 96°
2026-04-21 18:03 -20.84028 -52.95840 24996 ft 298 kts 96°
2026-04-21 18:03 -20.84177 -52.93887 24998 ft 298 kts 96°
2026-04-21 18:04 -20.84318 -52.92001 24999 ft 298 kts 96°
2026-04-21 18:04 -20.84487 -52.89786 25000 ft 299 kts 96°
2026-04-21 18:04 -20.84651 -52.87595 24999 ft 299 kts 96°
2026-04-21 18:04 -20.84819 -52.85385 25000 ft 299 kts 96°
2026-04-21 18:05 -20.84856 -52.83147 25003 ft 299 kts 92°
2026-04-21 18:05 -20.84853 -52.80950 25000 ft 299 kts 92°
2026-04-21 18:05 -20.84854 -52.78716 24999 ft 300 kts 91°
2026-04-21 18:05 -20.84853 -52.76476 25002 ft 300 kts 92°
2026-04-21 18:06 -20.84862 -52.74272 25001 ft 300 kts 93°
2026-04-21 18:06 -20.84895 -52.72039 25000 ft 300 kts 92°
2026-04-21 18:06 -20.84936 -52.69820 25002 ft 300 kts 93°
2026-04-21 18:06 -20.84978 -52.67598 25000 ft 300 kts 93°
2026-04-21 18:07 -20.85018 -52.65367 24998 ft 300 kts 93°
2026-04-21 18:07 -20.85063 -52.63135 24995 ft 300 kts 92°
2026-04-21 18:07 -20.85104 -52.60906 24994 ft 300 kts 93°
2026-04-21 18:07 -20.85147 -52.58675 24994 ft 300 kts 93°
2026-04-21 18:08 -20.85190 -52.56453 24996 ft 300 kts 93°
2026-04-21 18:08 -20.85231 -52.54223 24996 ft 300 kts 93°
2026-04-21 18:08 -20.85273 -52.52002 24995 ft 300 kts 92°
2026-04-21 18:08 -20.85313 -52.49775 24993 ft 300 kts 93°
2026-04-21 18:09 -20.85355 -52.47557 24995 ft 300 kts 93°
2026-04-21 18:09 -20.85395 -52.45317 24995 ft 300 kts 92°
2026-04-21 18:09 -20.85435 -52.43108 24995 ft 300 kts 93°
2026-04-21 18:09 -20.85476 -52.40869 24995 ft 300 kts 92°
2026-04-21 18:10 -20.85516 -52.38655 24994 ft 300 kts 92°
2026-04-21 18:10 -20.86057 -52.05995 24958 ft 300 kts 92°
2026-04-21 18:10 -20.86589 -51.71175 24963 ft 300 kts 91°
2026-04-21 18:10 -20.86614 -51.68962 24982 ft 300 kts 92°
2026-04-21 18:11 -20.86645 -51.66730 24988 ft 300 kts 92°
2026-04-21 18:11 -20.86674 -51.64496 24988 ft 301 kts 92°
2026-04-21 18:11 -20.86703 -51.62262 24988 ft 301 kts 92°
2026-04-21 18:11 -20.86734 -51.60028 24989 ft 301 kts 92°
2026-04-21 18:12 -20.86762 -51.57807 24992 ft 301 kts 92°
2026-04-21 18:12 -20.86791 -51.55570 24989 ft 302 kts 92°
2026-04-21 18:12 -20.86820 -51.53333 24993 ft 302 kts 92°
2026-04-21 18:12 -20.86848 -51.51096 24993 ft 302 kts 93°
2026-04-21 18:13 -20.86877 -51.48840 24992 ft 302 kts 92°
2026-04-21 18:13 -20.86906 -51.46595 24997 ft 302 kts 92°
2026-04-21 18:13 -20.86934 -51.44353 24998 ft 302 kts 92°
2026-04-21 18:13 -20.86960 -51.42125 24998 ft 302 kts 92°
2026-04-21 18:14 -20.87006 -51.38260 25001 ft 302 kts 92°
2026-04-21 18:14 -20.87092 -51.31169 25006 ft 302 kts 92°
2026-04-21 18:14 -20.87398 -51.00183 24941 ft 302 kts 93°
2026-04-21 18:15 -20.87433 -50.97946 24790 ft 301 kts 92°
2026-04-21 18:15 -20.87458 -50.95723 24493 ft 296 kts 92°
2026-04-21 18:15 -20.87480 -50.93549 24198 ft 291 kts 92°
2026-04-21 18:15 -20.87496 -50.91888 23973 ft 288 kts 92°
2026-04-21 18:16 -20.87508 -50.90743 23817 ft 286 kts 92°
2026-04-21 18:16 -20.87527 -50.88636 23516 ft 283 kts 92°
2026-04-21 18:16 -20.87546 -50.86545 23217 ft 280 kts 92°
2026-04-21 18:16 -20.87565 -50.84483 22922 ft 278 kts 92°
2026-04-21 18:17 -20.87582 -50.82425 22625 ft 276 kts 93°
2026-04-21 18:17 -20.87601 -50.80391 22331 ft 274 kts 93°
2026-04-21 18:17 -20.87617 -50.78361 22035 ft 273 kts 92°
2026-04-21 18:17 -20.87636 -50.76345 21741 ft 271 kts 92°
2026-04-21 18:18 -20.87651 -50.74343 21447 ft 270 kts 92°
2026-04-21 18:18 -20.87670 -50.72327 21150 ft 269 kts 92°
2026-04-21 18:18 -20.87684 -50.70338 20857 ft 268 kts 92°
2026-04-21 18:18 -20.87701 -50.68361 20568 ft 267 kts 92°
2026-04-21 18:19 -20.87716 -50.66384 20277 ft 266 kts 92°
2026-04-21 18:19 -20.87732 -50.64409 19986 ft 265 kts 92°
2026-04-21 18:19 -20.87745 -50.62464 19697 ft 265 kts 92°
2026-04-21 18:19 -20.87759 -50.60574 19418 ft 264 kts 92°
2026-04-21 18:20 -20.87775 -50.58622 19127 ft 263 kts 92°
2026-04-21 18:20 -20.87788 -50.56650 18842 ft 262 kts 92°
2026-04-21 18:20 -20.87802 -50.54704 18554 ft 262 kts 92°
2026-04-21 18:20 -20.87815 -50.52774 18268 ft 261 kts 93°
2026-04-21 18:21 -20.87828 -50.50842 17979 ft 261 kts 92°
2026-04-21 18:21 -20.87843 -50.48907 17695 ft 260 kts 92°
2026-04-21 18:21 -20.87857 -50.46977 17408 ft 259 kts 92°
2026-04-21 18:21 -20.87869 -50.45053 17123 ft 258 kts 92°
2026-04-21 18:22 -20.87883 -50.43131 16842 ft 258 kts 92°
2026-04-21 18:22 -20.87894 -50.41230 16555 ft 257 kts 92°
2026-04-21 18:22 -20.87905 -50.39326 16262 ft 256 kts 92°
2026-04-21 18:22 -20.87918 -50.37426 15977 ft 255 kts 92°
2026-04-21 18:23 -20.87928 -50.35556 15700 ft 254 kts 92°
2026-04-21 18:23 -20.87939 -50.33674 15414 ft 253 kts 91°
2026-04-21 18:23 -20.87950 -50.31761 15130 ft 252 kts 91°
2026-04-21 18:23 -20.87962 -50.29897 14845 ft 251 kts 91°
2026-04-21 18:24 -20.87973 -50.28045 14559 ft 250 kts 91°
2026-04-21 18:24 -20.87983 -50.26193 14276 ft 249 kts 91°
2026-04-21 18:24 -20.87992 -50.24348 13993 ft 248 kts 91°
2026-04-21 18:24 -20.88001 -50.22514 13710 ft 246 kts 91°
2026-04-21 18:25 -20.88012 -50.20699 13432 ft 245 kts 90°
2026-04-21 18:25 -20.88021 -50.18861 13146 ft 244 kts 90°
2026-04-21 18:25 -20.88030 -50.17069 12866 ft 243 kts 90°
2026-04-21 18:25 -20.88037 -50.15263 12587 ft 243 kts 90°
2026-04-21 18:26 -20.88046 -50.13455 12310 ft 242 kts 90°
2026-04-21 18:26 -20.88053 -50.11659 12035 ft 242 kts 90°
2026-04-21 18:26 -20.88062 -50.09871 11753 ft 241 kts 90°
2026-04-21 18:26 -20.88069 -50.08080 11478 ft 241 kts 90°
2026-04-21 18:27 -20.88077 -50.06290 11199 ft 240 kts 90°
2026-04-21 18:27 -20.88085 -50.04504 10927 ft 240 kts 90°
2026-04-21 18:27 -20.88092 -50.02731 10646 ft 239 kts 90°
2026-04-21 18:27 -20.88099 -50.00974 10369 ft 239 kts 90°
2026-04-21 18:28 -20.88106 -49.99209 10090 ft 238 kts 90°
2026-04-21 18:28 -20.88113 -49.97418 9806 ft 238 kts 90°
2026-04-21 18:28 -20.88120 -49.95660 9522 ft 237 kts 90°
2026-04-21 18:28 -20.88126 -49.93901 9240 ft 237 kts 90°
2026-04-21 18:29 -20.88133 -49.92148 8955 ft 236 kts 90°
2026-04-21 18:29 -20.88139 -49.90400 8675 ft 236 kts 90°
2026-04-21 18:29 -20.88144 -49.88652 8393 ft 236 kts 90°
2026-04-21 18:29 -20.88150 -49.86902 8110 ft 236 kts 90°
2026-04-21 18:30 -20.88155 -49.85153 7830 ft 236 kts 90°
2026-04-21 18:30 -20.88160 -49.83407 7550 ft 235 kts 90°
2026-04-21 18:30 -20.88190 -49.73089 5914 ft 234 kts 90°
2026-04-21 18:30 -20.88198 -49.67758 5087 ft 231 kts 90°
2026-04-21 18:31 -20.88201 -49.66087 5024 ft 221 kts 90°
2026-04-21 18:31 -20.88206 -49.64481 5008 ft 212 kts 90°
2026-04-21 18:31 -20.88270 -49.62909 4812 ft 212 kts 105°
2026-04-21 18:31 -20.88957 -49.61536 4625 ft 208 kts 119°
2026-04-21 18:32 -20.89706 -49.60217 4364 ft 206 kts 121°
2026-04-21 18:32 -20.90451 -49.58919 4106 ft 204 kts 121°
2026-04-21 18:32 -20.91187 -49.57642 3841 ft 200 kts 121°
2026-04-21 18:32 -20.91899 -49.56399 3591 ft 196 kts 120°
2026-04-21 18:33 -20.92038 -49.55027 3525 ft 183 kts 72°
2026-04-21 18:33 -20.91446 -49.53876 3512 ft 171 kts 60°
2026-04-21 18:33 -20.90793 -49.52862 3505 ft 161 kts 55°
2026-04-21 18:33 -20.90132 -49.51935 3504 ft 152 kts 54°
2026-04-21 18:34 -20.89487 -49.51060 3507 ft 144 kts 53°
2026-04-21 18:34 -20.88877 -49.50252 3506 ft 137 kts 52°
2026-04-21 18:34 -20.88292 -49.49475 3500 ft 127 kts 52°
2026-04-21 18:34 -20.87755 -49.48766 3496 ft 123 kts 53°
2026-04-21 18:35 -20.87395 -49.48290 3415 ft 126 kts 53°
2026-04-21 18:35 -20.86645 -49.47287 3217 ft 131 kts 53°
2026-04-21 18:35 -20.86067 -49.46514 3051 ft 129 kts 53°
2026-04-21 18:35 -20.85546 -49.45820 2975 ft 107 kts 53°
2026-04-21 18:36 -20.85069 -49.45181 2776 ft 111 kts 52°
2026-04-21 18:36 -20.84578 -49.44540 2619 ft 110 kts 52°
2026-04-21 18:36 -20.84099 -49.43914 2464 ft 110 kts 53°
2026-04-21 18:36 -20.83618 -49.43263 2274 ft 112 kts 53°
2026-04-21 18:37 -20.83139 -49.42606 2111 ft 111 kts 53°
2026-04-21 18:37 -20.82667 -49.41969 1965 ft 107 kts 52°
2026-04-21 18:37 -20.82201 -49.41356 1812 ft 102 kts 53°
2026-04-21 18:37 -20.81795 -49.40816 1756 ft 87 kts 52°
2026-04-21 18:38 -20.81568 -49.40501 1747 ft 13 kts 13°
2026-04-21 18:38 -20.81588 -49.40532 1747 ft 12 kts 233°
2026-04-21 18:38 -20.81559 -49.40620 1748 ft 19 kts 317°
2026-04-21 18:38 -20.81528 -49.40716 1750 ft 10 kts 232°
2026-04-21 18:39 -20.81558 -49.40770 1751 ft 6 kts 294°
2026-04-21 18:39 -20.81513 -49.40787 1750 ft 7 kts 12°
2026-04-21 18:39 -20.81496 -49.40787 1750 ft 1 kts 336°
2026-04-21 18:39 -20.81493 -49.40789 1750 ft 0 kts 315°